Torna al catalogo

OPS 4682 DEB

AttivoPO
NORAD 38438·DEBRIS·🇺🇸 United States

Lanciato Apr 3, 1965 da Vandenberg Space Force Base

Loading…

Prossimi Passaggi (prossime 24 ore)

TLE

AggiornatoSource: Space-Track

Epoca: Sep 14, 2026, 06:56 UTC

1 38438U 65027ET  26257.28907807  .00000259  00000-0  92123-3 0  9995
2 38438  90.2470   7.5856 0029593  42.5767 317.7638 12.93149022672553

Traccia OPS 4682 DEB in tempo reale con AllMySat

Download on the App Store